Ephrata, WA
on Saturday, January 5, 2013

Saturday
Previous Day Next Day
Daily Summary
 ActualAverageRecord
Temperature
Mean Temperature °F 27°F  
Max Temperature 33°F 33°F 56°F (1954)
Min Temperature 26°F 21°F -11°F (2004)
Degree Days
Heating Degree Days 35 38  
Month to date heating degree days 196 191  
Since 1 July heating degree days 2451 2777  
Cooling Degree Days 0 0  
Month to date cooling degree days 0 0  
Year to date cooling degree days 0 0  
Moisture
Dew Point 24°F   
Average Humidity 84    
Maximum Humidity 92    
Minimum Humidity 75    
Precipitation
Precipitation 0.02 in 0.04 in 0.43 in (1986)
Month to date precipitation 0.02 0.17  
Year to date precipitation 0.02 0.17  
Wind
Wind Speed 6 mph   
Max Wind Speed 16 mph   
Max Gust Speed 18 mph   
Visibility 6 miles   
Events Snow   

Key: T is trace of precipitation, MM is missing value
Source: NWS Daily Summary
Time(PST)TemperatureDew PointHumidity Pressure Visibility Wind DirectionWind SpeedGust SpeedPrecipitationEvents Conditions
12:53 AM 27.0°F 21.9°F 81% 30.43 in 10.0 miles NNW 15.0 mph - N/A   Overcast
1:53 AM 27.0°F 21.9°F 81% 30.43 in 10.0 miles North 11.5 mph - N/A   Overcast
2:33 AM 28.4°F 21.2°F 74% 30.37 in 10.0 miles NNW 12.7 mph - N/A   Overcast
2:53 AM 28.0°F 23.0°F 81% 30.42 in 10.0 miles NNW 11.5 mph - N/A   Overcast
3:10 AM 28.4°F 23.0°F 80% 30.37 in 10.0 miles NW 9.2 mph - N/A   Overcast
3:53 AM 28.0°F 23.0°F 81% 30.40 in 10.0 miles NNW 12.7 mph - N/A   Overcast
4:25 AM 28.4°F 21.2°F 74% 30.35 in 10.0 miles NNW 12.7 mph - N/A   Overcast
4:53 AM 28.9°F 23.0°F 78% 30.39 in 10.0 miles NNW 11.5 mph - N/A   Overcast
5:53 AM 28.9°F 23.0°F 78% 30.39 in 10.0 miles NNW 11.5 mph - N/A   Overcast
6:33 AM 28.4°F 23.0°F 80% 30.33 in 10.0 miles NNW 12.7 mph - N/A   Overcast
6:53 AM 28.9°F 23.0°F 78% 30.38 in 10.0 miles North 9.2 mph - N/A   Overcast
7:13 AM 28.4°F 24.8°F 86% 30.33 in 10.0 miles NNW 9.2 mph - N/A   Overcast
7:53 AM 30.0°F 24.1°F 79% 30.37 in 10.0 miles NNW 9.2 mph - N/A   Overcast
8:53 AM 30.0°F 25.0°F 82% 30.37 in 10.0 miles NNW 9.2 mph - N/A   Overcast
9:53 AM 30.9°F 25.0°F 79% 30.37 in 10.0 miles NW 5.8 mph - N/A   Overcast
10:53 AM 30.9°F 25.0°F 79% 30.37 in 10.0 miles NNW 8.1 mph - N/A   Overcast
11:53 AM 32.0°F 26.1°F 79% 30.33 in 10.0 miles North 8.1 mph - N/A   Mostly Cloudy
12:53 PM 32.0°F 26.1°F 79% 30.32 in 10.0 miles North 8.1 mph - N/A   Overcast
1:53 PM 33.1°F 26.1°F 75% 30.30 in 10.0 miles NNE 3.5 mph - N/A   Overcast
2:53 PM 28.9°F 26.1°F 89% 30.32 in 6.0 miles South 6.9 mph - N/A   Overcast
3:50 PM 28.4°F 24.8°F 86% 30.26 in 1.8 miles SE 4.6 mph - 0.00 in Snow Light Snow
3:53 PM 27.0°F 24.1°F 89% 30.31 in 1.2 miles SE 4.6 mph - 0.00 in Snow Light Snow
4:03 PM 26.6°F 24.8°F 93% 30.26 in 0.8 miles SE 3.5 mph - 0.00 in Snow Light Snow
4:53 PM 27.0°F 25.0°F 92% 30.30 in 1.5 miles Calm Calm - 0.01 in Snow Light Snow
5:33 PM 26.6°F 24.8°F 93% 30.25 in 2.0 miles Calm Calm - 0.00 in Snow Light Snow
5:53 PM 27.0°F 25.0°F 92% 30.30 in 2.0 miles Calm Calm - 0.00 in Snow Light Snow
6:53 PM 27.0°F 24.1°F 89% 30.29 in 2.5 miles Calm Calm - 0.01 in Snow Light Snow
7:45 PM 26.6°F 24.8°F 93% 30.23 in 3.0 miles Calm Calm - 0.00 in Snow Light Snow
7:53 PM 27.0°F 25.0°F 92% 30.28 in 3.0 miles Calm Calm - 0.00 in Snow Light Snow
8:00 PM 26.6°F 24.8°F 93% 30.24 in 2.5 miles Calm Calm - 0.00 in Snow Light Snow
8:07 PM 26.6°F 24.8°F 93% 30.23 in 2.5 miles Calm Calm - 0.00 in Snow Light Snow
8:22 PM 26.6°F 24.8°F 93% 30.23 in 1.5 miles Calm Calm - 0.00 in Snow Light Snow
8:39 PM 26.6°F 24.8°F 93% 30.23 in 2.0 miles Calm Calm - 0.00 in Snow Light Snow
8:53 PM 26.1°F 24.1°F 92% 30.27 in 3.0 miles Calm Calm - 0.00 in   Overcast
9:16 PM 26.6°F 24.8°F 93% 30.22 in 4.0 miles Calm Calm - N/A   Overcast
9:29 PM 26.6°F 24.8°F 93% 30.22 in 4.0 miles Calm Calm - N/A   Overcast
9:39 PM 26.6°F 24.8°F 93% 30.22 in 4.0 miles Calm Calm - N/A   Overcast
9:53 PM 27.0°F 25.0°F 92% 30.26 in 4.0 miles Calm Calm - N/A   Overcast
10:26 PM 26.6°F 24.8°F 93% 30.21 in 3.0 miles Calm Calm - N/A   Overcast
10:53 PM 27.0°F 25.0°F 92% 30.25 in 4.0 miles Calm Calm - N/A   Overcast
11:53 PM 27.0°F 25.0°F 92% 30.23 in 4.0 miles Calm Calm - N/A   Overcast
Moon Phase
Jan. 05 Jan. 11 Jan. 18 Jan. 26 Feb. 03
Sunrise:07:44 AM (PST) Moon Rise:12:42 AM (PST)1/5
Sunset:04:23 PM (PST) Moon Set:11:27 AM (PST)1/5

Copyright © 2014 The Weather Underground, Inc.